Content
SEND FEEDBACK

Daily
Averages
Monthly
Summary
United States of America

PORT CLINTON, PENNSYLVANIA


Home > North America > United States > Pennsylvania
Elevation: 400 feet     Latitude: 40 35N     Longitude: 076 02W

WEATHER
 
SELECT A DAY
Number of Records: 193,774;   Date Range: 1/1/95 - 9/20/14
 
SHARE

PRINT THIS DATA

[ ← Previous Day ]
WEATHER ALMANAC - FEBRUARY 13, 2013
[ Next Day → ]
[ °C ]   °F
Weather ElementAverageHighLow
Temperature34.1 °F43 °F (1:54 pm)23 °F (6:54 am)
Dewpoint28.1 °F33.1 °F (8:54 pm)21 °F (6:54 am)
Humidity80.3 %96 % (7:54 pm)51 % (12:54 pm)
Barometer29.80 in29.98 in (1:54 am)29.71 in (4:54 pm)
Wind Speed1.5 mph5.8 mph (10:54 am)
Weather ElementAverage
Visibility6 mi
Wind DirectionENE (77.2 °)

Weather ElementTotal
Precipitation0.25 in
Heating Degree Days32 (Base 65)
Averaged from 32 records on February 13, 2013
WEATHER CONDITIONS BREAKOUT
WIND DIRECTION BREAKOUT
WEATHER BY HOUR - FEBRUARY 13, 2013
[ °C ]   °F
Local TimeTemperatureDewpointHumidityBarometerVisibilityWind DirectionWind SpeedGust SpeedPrecipitationEventsConditions
1:54 AM28.0 °F21.9 °F78 %29.98 in10.0 miCalmClear
2:54 AM27.0 °F21.9 °F81 %29.96 in10.0 miCalmClear
3:54 AM27.0 °F23.0 °F85 %29.93 in9.0 miCalmClear
4:54 AM26.1 °F21.9 °F84 %29.93 in10.0 miCalmClear
5:54 AM25.0 °F21.9 °F88 %29.93 in9.0 miCalmClear
6:54 AM23.0 °F21.0 °F92 %29.93 in7.0 miCalmClear
7:54 AM27.0 °F25.0 °F92 %29.91 in6.0 miCalmClear
8:54 AM28.9 °F25.0 °F85 %29.90 in7.0 miCalmClear
9:54 AM35.1 °F28.0 °F76 %29.89 in8.0 miSSW (210°)4.6 mphClear
10:54 AM39.0 °F25.0 °F57 %29.90 in10.0 miSE (130°)5.8 mphClear
11:54 AM39.9 °F24.1 °F53 %29.86 in10.0 miCalmClear
12:54 PM42.1 °F25.0 °F51 %29.80 in10.0 miCalmScattered Clouds
1:54 PM43.0 °F26.1 °F51 %29.78 in10.0 miESE (110°)3.5 mphClear
2:54 PM43.0 °F26.1 °F51 %29.76 in10.0 miCalmPartly Cloudy
3:54 PM42.1 °F26.1 °F53 %29.73 in10.0 miEast (90°)4.6 mphOvercast
4:54 PM41.0 °F27.0 °F57 %29.71 in10.0 miNNE (20°)4.6 mphOvercast
5:54 PM41.0 °F28.0 °F60 %29.71 in10.0 miCalm0.00 inOvercast
6:54 PM37.0 °F32.0 °F82 %29.73 in7.0 miNorth (360°)3.5 mph0.00 inRainLight Rain
7:10 PM35.6 °F32.0 °F87 %29.71 in4.0 miCalm0.02 inSnowLight Snow
7:22 PM35.6 °F32.0 °F87 %29.71 in2.5 miCalm0.03 inSnowLight Snow
7:33 PM33.8 °F32.0 °F93 %29.72 in1.2 miCalm0.05 inSnowLight Snow
7:41 PM33.8 °F32.0 °F93 %29.72 in1.2 miCalm0.05 inSnowLight Snow
7:54 PM33.1 °F32.0 °F96 %29.74 in1.8 miCalm0.06 inSnowLight Snow
8:54 PM34.0 °F33.1 °F96 %29.73 in1.2 miCalm0.02 inSnowLight Snow
9:54 PM34.0 °F32.0 °F92 %29.73 in1.8 miNW (320°)4.6 mph0.02 inSnowLight Snow
10:01 PM33.8 °F32.0 °F93 %29.71 in2.0 miNW (320°)4.6 mph0.00 inSnowLight Snow
10:12 PM33.8 °F32.0 °F93 %29.71 in1.8 miNW (310°)4.6 mph0.00 inSnowLight Snow
10:21 PM33.8 °F32.0 °F93 %29.72 in2.0 miNW (310°)4.6 mph0.00 inSnowLight Snow
10:50 PM33.8 °F32.0 °F93 %29.72 in1.8 miWNW (290°)3.5 mph0.00 inSnowLight Snow
10:54 PM34.0 °F32.0 °F92 %29.75 in1.8 miCalm0.00 inSnowLight Snow
11:09 PM33.8 °F32.0 °F93 %29.72 in2.0 miCalm0.00 inSnowLight Snow
11:54 PM34.0 °F32.0 °F92 %29.75 in2.5 miCalm0.00 inOvercast
Hourly data recorded from KRDG, located miles away from Port Clinton, Pennsylvania







STORIES FROM OUR PARTNERS